Location: Newark
(21.8258°S, 114.1586°E)
Time: 03:10:52
(UTC+00:00)

N. Korean satellite - Visible Passes

Search period start: 15 December 2019 00:00
Search period end: 25 December 2019 00:00
Orbit: 455 x 507 km, 97.2° (Epoch: 14 December)

Date Brightness Start Highest point End Pass type
(mag) Time Alt. Az. Time Alt. Az. Time Alt. Az.
17 Dec 9.0 21:12:05 10° NE 21:15:05 28° ESE 21:18:08 10° SSE visible
18 Dec 10.1 20:48:25 10° E 20:49:49 12° ESE 20:51:12 10° SE visible
21 Dec 9.5 21:04:00 10° NE 21:06:42 22° ESE 21:09:27 10° SSE visible
